Location: Salillas
(41.9950°N, 0.2228°W)
Time: 01:40:39
(UTC+00:00)

Cosmos 1269 Rocket - Pass Details

Date: 29 March 2020
Orbit: 773 x 779 km, 74.1° (Epoch: 05 June)

Event Time Altitude Azimuth Distance (km) Brightness Sun altitude
Rises 19:19:28 0° 193° (SSW) 3,235 7.2 -11.0°
Reaches altitude 10° 19:21:50 10° 192° (SSW) 2,313 6.5 -11.4°
Maximum altitude 19:27:05 76° 107° (ESE) 803 3.9 -12.4°
Drops below altitude 10° 19:32:22 10° 23° (NNE) 2,333 6.5 -13.3°
Sets 19:34:46 0° 22° (NNE) 3,266 7.2 -13.7°
